CUBESAT XI-IV (CO-57)

Last updated on Tue Dec 16 2025 00:03:10 GMT+0000 (Coordinated Universal Time)

1 27848U 03031J 25349.29774373 .00000342 00000+0 16942-3 0 9994 2 27848 98.6792 355.0277 0009873 23.7561 336.4071 14.23489145165212
UTC large
Height (km)
Speed (km/s)
/
Latitude / Longitude
Inclination (degrees)
Orbital Period (minutes)
Azimuth
Elevation
Range (km)
Doppler Factor

Next 0 passes for location: London (51.5072 / 0.1276)

Sorry there are no passes over London.